{"data":{"norad_id":55324,"intl_designator":"2023-011A","name":"HAWK-6B","alt_names":[],"object_type":"PAYLOAD","status":"ACTIVE","operator":null,"country":"US","launch_date":"2023-01-24","launch_site_code":"WLPIS","launch_vehicle":null,"mission":null,"orbit_class":"UNKNOWN","rcs_meters":null,"size_class":null,"mass_kg":null,"dimensions":null,"purposes":["tech_demo"],"wikipedia_slug":null,"has_3d_model":false,"image_url":null,"decayed_at":null,"tle_current":{"epoch":"2026-09-20T02:45:01.821888Z","epoch_age_seconds":47765,"freshness":"FRESH","line1":"1 55324U 23011A   26263.11460442  .00003951  00000+0  16938-3 0  9994","line2":"2 55324  40.4978 158.0778 0002993 313.5722  46.4838 15.23647001202326","mean_motion":15.23647001,"eccentricity":0.0002993,"inclination_deg":40.4978,"raan_deg":158.0778,"arg_perigee_deg":313.5722,"mean_anomaly_deg":46.4838,"bstar":0.00016938,"rev_number":20232,"period_min":94.510080028701,"perigee_km":492.79415026219,"apogee_km":496.90832102005,"semimajor_km":6872.9882356411,"source":"CELESTRAK","updated_at":"2026-09-20T09:00:47.451226Z"}}}